Tracking 29892 objects as of 21-Nov-2024
HD Live streaming from Space Station
objects crossing your sky now

STARLINK-32228

Track STARLINK-32228 now!
10-day predictions
STARLINK-32228 is classified as:


NORAD ID: 60445
Int'l Code: 2024-144W
Perigee: 481.4 km
Apogee: 483.3 km
Inclination: 53.2 °
Period: 94.1 minutes
Semi major axis: 6853 km
RCS: Unknown
Launch date: August 12, 2024
Source: United States (US)
Launch site: AIR FORCE EASTERN TEST RANGE (AFETR)
Your satellite tracking list
Your tracking list is empty




NASA's NSSDC Master Catalog

Two Line Element Set (TLE):
1 60445U 24144W   24325.24086253 -.00000329  00000-0  10235-5 0  9991
2 60445  53.1623 260.5584 0001380  69.0357 291.0791 15.30205928 16712
Source of the keplerian elements: AFSPC